Meteo pe oră la Dabburiya

Astăzi, 14 Aprilie, Miercuri

Timp Temperatura Precipitaţii Vânt Presiune Umiditate
00:00 +10°C° 0 mm 1 m/s 746 mmHg 68%
01:00 +10°C° 0 mm 1 m/s 746 mmHg 68%
02:00 +10°C° 0 mm 1 m/s 745 mmHg 68%
03:00 +10°C° 0 mm 1 m/s 745 mmHg 67%
04:00 +10°C° 0 mm 1 m/s 745 mmHg 65%
05:00 +10°C° 0 mm 1 m/s 746 mmHg 64%
06:00 +12°C° 0 mm 1 m/s 746 mmHg 57%
07:00 +14°C° 0 mm 1 m/s 746 mmHg 51%
08:00 +16°C° 0 mm 2 m/s 746 mmHg 44%
09:00 +18°C° 0 mm 2 m/s 746 mmHg 40%
10:00 +20°C° 0 mm 2 m/s 746 mmHg 35%
11:00 +23°C° 0 mm 2 m/s 746 mmHg 31%
12:00 +24°C° 0 mm 2 m/s 745 mmHg 31%
13:00 +24°C° 0 mm 3 m/s 745 mmHg 31%
14:00 +25°C° 0 mm 3 m/s 744 mmHg 31%
15:00 +24°C° 0 mm 3 m/s 744 mmHg 36%
16:00 +21°C° 0 mm 3 m/s 744 mmHg 41%
17:00 +20°C° 0 mm 3 m/s 744 mmHg 46%
18:00 +18°C° 0 mm 3 m/s 744 mmHg 49%
19:00 +16°C° 0 mm 2 m/s 744 mmHg 51%
20:00 +14°C° 0 mm 2 m/s 744 mmHg 54%
21:00 +14°C° 0 mm 1 m/s 744 mmHg 52%
22:00 +14°C° 0 mm 1 m/s 744 mmHg 49%
23:00 +14°C° 0 mm 1 m/s 744 mmHg 47%

Mâine, 15 Aprilie, Joi

Timp Temperatura Precipitaţii Vânt Presiune Umiditate
00:00 +14°C° 0 mm 1 m/s 744 mmHg 46%
01:00 +14°C° 0 mm 1 m/s 744 mmHg 46%
02:00 +14°C° 0 mm 1 m/s 744 mmHg 45%
03:00 +14°C° 0 mm 1 m/s 744 mmHg 44%
04:00 +14°C° 0 mm 1 m/s 744 mmHg 44%
05:00 +14°C° 0 mm 1 m/s 744 mmHg 43%
06:00 +16°C° 0 mm 1 m/s 744 mmHg 40%
07:00 +19°C° 0 mm 1 m/s 744 mmHg 36%
08:00 +22°C° 0 mm 1 m/s 744 mmHg 33%
09:00 +24°C° 0 mm 1 m/s 744 mmHg 30%
10:00 +26°C° 0 mm 1 m/s 744 mmHg 27%
11:00 +28°C° 0 mm 1 m/s 744 mmHg 24%
12:00 +28°C° 0 mm 2 m/s 744 mmHg 25%
13:00 +29°C° 0 mm 3 m/s 743 mmHg 26%
14:00 +29°C° 0 mm 3 m/s 743 mmHg 27%
15:00 +28°C° 0 mm 3 m/s 743 mmHg 31%
16:00 +26°C° 0 mm 3 m/s 742 mmHg 36%
17:00 +25°C° 0 mm 3 m/s 742 mmHg 41%
18:00 +23°C° 0 mm 2 m/s 742 mmHg 41%
19:00 +20°C° 0 mm 2 m/s 742 mmHg 42%
20:00 +19°C° 0 mm 2 m/s 742 mmHg 42%
21:00 +18°C° 0 mm 2 m/s 742 mmHg 41%
22:00 +19°C° 0 mm 1 m/s 742 mmHg 40%
23:00 +19°C° 0 mm 1 m/s 742 mmHg 39%

Poimâine, 16 Aprilie, Vineri

Timp Temperatura Precipitaţii Vânt Presiune Umiditate
00:00 +19°C° 0 mm 1 m/s 742 mmHg 39%
01:00 +19°C° 0 mm 1 m/s 742 mmHg 39%
02:00 +19°C° 0 mm 1 m/s 742 mmHg 38%
03:00 +19°C° 0 mm 1 m/s 742 mmHg 38%
04:00 +19°C° 0 mm 1 m/s 742 mmHg 38%
05:00 +17°C° 0 mm 2 m/s 742 mmHg 38%
06:00 +20°C° 0 mm 2 m/s 742 mmHg 36%
07:00 +23°C° 0 mm 2 m/s 743 mmHg 33%
08:00 +25°C° 0 mm 2 m/s 743 mmHg 30%
09:00 +27°C° 0 mm 2 m/s 743 mmHg 28%
10:00 +28°C° 0 mm 2 m/s 743 mmHg 26%
11:00 +30°C° 0 mm 2 m/s 743 mmHg 23%
12:00 +30°C° 0 mm 3 m/s 742 mmHg 24%
13:00 +32°C° 0 mm 4 m/s 742 mmHg 24%
14:00 +32°C° 0 mm 4 m/s 742 mmHg 25%
15:00 +29°C° 0 mm 4 m/s 741 mmHg 29%
16:00 +28°C° 0 mm 4 m/s 741 mmHg 34%
17:00 +26°C° 0 mm 4 m/s 741 mmHg 38%
18:00 +24°C° 0 mm 3 m/s 741 mmHg 39%
19:00 +22°C° 0 mm 3 m/s 742 mmHg 39%
20:00 +20°C° 0 mm 2 m/s 742 mmHg 39%
21:00 +19°C° 0 mm 2 m/s 742 mmHg 39%
22:00 +20°C° 0 mm 1 m/s 742 mmHg 38%
23:00 +19°C° 0 mm 1 m/s 742 mmHg 37%

17 Aprilie, Sâmbătă

Timp Temperatura Precipitaţii Vânt Presiune Umiditate
00:00 +19°C° 0 mm 1 m/s 742 mmHg 37%
01:00 +19°C° 0 mm 1 m/s 742 mmHg 37%
02:00 +18°C° 0 mm 2 m/s 742 mmHg 36%
03:00 +19°C° 0 mm 1 m/s 741 mmHg 35%
04:00 +20°C° 0 mm 1 m/s 741 mmHg 34%
05:00 +20°C° 0 mm 1 m/s 741 mmHg 33%
06:00 +22°C° 0 mm 1 m/s 741 mmHg 31%
07:00 +25°C° 0 mm 1 m/s 742 mmHg 29%
08:00 +27°C° 0 mm 2 m/s 742 mmHg 27%
09:00 +28°C° 0 mm 1 m/s 742 mmHg 27%
10:00 +30°C° 0 mm 1 m/s 742 mmHg 26%
11:00 +32°C° 0 mm 1 m/s 742 mmHg 25%
12:00 +33°C° 0 mm 3 m/s 742 mmHg 26%
13:00 +33°C° 0 mm 4 m/s 741 mmHg 26%
14:00 +33°C° 0 mm 5 m/s 741 mmHg 27%
15:00 +32°C° 0 mm 4 m/s 741 mmHg 30%
16:00 +30°C° 0 mm 3 m/s 741 mmHg 33%
17:00 +29°C° 0 mm 2 m/s 741 mmHg 35%
18:00 +27°C° 0 mm 2 m/s 742 mmHg 37%
19:00 +25°C° 0 mm 1 m/s 742 mmHg 38%
20:00 +23°C° 0 mm 1 m/s 742 mmHg 39%
21:00 +23°C° 0 mm 2 m/s 742 mmHg 38%
22:00 +21°C° 0 mm 2 m/s 742 mmHg 38%
23:00 +21°C° 0 mm 2 m/s 742 mmHg 38%

18 Aprilie, Duminică

Timp Temperatura Precipitaţii Vânt Presiune Umiditate
00:00 +21°C° 0 mm 2 m/s 742 mmHg 36%
01:00 +21°C° 0 mm 2 m/s 742 mmHg 35%
02:00 +22°C° 0 mm 1 m/s 742 mmHg 34%
03:00 +22°C° 0 mm 1 m/s 742 mmHg 34%
04:00 +21°C° 0 mm 2 m/s 742 mmHg 34%
05:00 +21°C° 0 mm 2 m/s 742 mmHg 34%
06:00 +25°C° 0 mm 2 m/s 742 mmHg 32%
07:00 +27°C° 0 mm 3 m/s 743 mmHg 29%
08:00 +29°C° 0 mm 3 m/s 743 mmHg 27%
09:00 +33°C° 0 mm 3 m/s 743 mmHg 24%
10:00 +35°C° 0 mm 2 m/s 743 mmHg 22%
11:00 +36°C° 0 mm 1 m/s 743 mmHg 19%
12:00 +37°C° 0 mm 2 m/s 743 mmHg 19%
13:00 +38°C° 0 mm 2 m/s 742 mmHg 19%
14:00 +38°C° 0 mm 2 m/s 742 mmHg 19%
15:00 +37°C° 0 mm 2 m/s 742 mmHg 24%
16:00 +35°C° 0 mm 2 m/s 741 mmHg 28%
17:00 +34°C° 0 mm 2 m/s 741 mmHg 33%
18:00 +31°C° 0 mm 2 m/s 741 mmHg 33%
19:00 +29°C° 0 mm 2 m/s 741 mmHg 33%
20:00 +28°C° 0 mm 1 m/s 741 mmHg 32%
21:00 +27°C° 0 mm 2 m/s 741 mmHg 31%
22:00 +27°C° 0 mm 2 m/s 741 mmHg 31%
23:00 +27°C° 0 mm 2 m/s 741 mmHg 30%

19 Aprilie, Luni

Timp Temperatura Precipitaţii Vânt Presiune Umiditate
00:00 +27°C° 0 mm 3 m/s 741 mmHg 29%
01:00 +27°C° 0 mm 3 m/s 741 mmHg 29%
02:00 +27°C° 0 mm 3 m/s 741 mmHg 28%
03:00 +26°C° 0 mm 3 m/s 741 mmHg 28%
04:00 +26°C° 0 mm 3 m/s 741 mmHg 29%
05:00 +26°C° 0 mm 3 m/s 741 mmHg 29%
06:00 +28°C° 0 mm 4 m/s 741 mmHg 28%
07:00 +30°C° 0 mm 4 m/s 741 mmHg 26%
08:00 +33°C° 0 mm 4 m/s 742 mmHg 25%
09:00 +35°C° 0 mm 4 m/s 741 mmHg 22%
10:00 +37°C° 0 mm 4 m/s 741 mmHg 19%
11:00 +39°C° 0 mm 3 m/s 741 mmHg 16%
12:00 +40°C° 0 mm 3 m/s 741 mmHg 15%
13:00 +40°C° 0 mm 2 m/s 740 mmHg 14%
14:00 +41°C° 0 mm 2 m/s 740 mmHg 13%
15:00 +40°C° 0 mm 2 m/s 739 mmHg 16%
16:00 +38°C° 0 mm 2 m/s 739 mmHg 20%
17:00 +36°C° 0 mm 1 m/s 739 mmHg 23%
18:00 +34°C° 0 mm 1 m/s 739 mmHg 24%
19:00 +33°C° 0 mm 1 m/s 739 mmHg 24%
20:00 +31°C° 0 mm 1 m/s 739 mmHg 24%
21:00 +31°C° 0 mm 1 m/s 739 mmHg 24%
22:00 +30°C° 0 mm 1 m/s 738 mmHg 24%
23:00 +30°C° 0 mm 1 m/s 738 mmHg 23%
Arată mai mult

Formular de consimțământ

Meteoprog și furnizorii noștri de servicii pot stoca și accesa date personale, precum cookies, identificatori de dispozitiv sau alte tehnologii similare pe dispozitivul dumneavoastră și procesa astfel de date pentru a personaliza conținutul și reclamele, dar și pentru a oferi caracteristici de social media și pentru a analiza traficul.

  • Stocarea și/sau accesarea informațiilor pe dispozitivul dumneavoastră

    Cookies, identificatori de dispozitiv sau alte informații pot fi stocate sau accesate pe dispozitiv în scopurile indicate mai sus.

  • Reclame și conținut personalizat, evaluarea reclamelor și a conținutului, informații despre audiențe și dezvoltarea produselor

    Reclamele și conținutul pot fi personalizate pe baza unui profil. Pot fi adăugate date suplimentare pentru a personaliza mai bine reclamele și conținutul. Performanța reclamelor și conținutului poate fi măsurată. Pot fi obținute informații despre utilizatorii care au văzut reclamele și conținutul. Aceste date pot fi utilizate pentru a dezvolta sau îmbunătăți experiența utilizatorilor, sistemele și software-ul.

Dând clic pe ‘Sunt de acord’, permiteți utilizarea cookie-urilor menționate, a identificatorilor de dispozitiv, balizelor web sau altor tehnologii similare. Setările pot fi modificate din browser-ul dispozitivului dumneavoastră.

În anumite scopuri, interesele legitime pot prima asupra consimțământului. Puteți citi mai multe informații în acest sens în Politica privind Confidențialitatea Datelor și Cookie.